| time (UTC) | temp F | wind direction | speed MPH | gust MPH | rain 1hr in | rain 24hr in | rain mn in | humidity % | barometer mb |
| 20260503231839 | 64 | 202 | 2.0 | 5.0 | 0.00 | 0.00 | 0.00 | 65 | 1016.0 |
| 20260503231336 | 64 | 219 | 4.0 | 6.0 | 0.00 | 0.00 | 0.00 | 65 | 1015.8 |
| 20260503230832 | 64 | 197 | 4.0 | 7.0 | 0.00 | 0.00 | 0.00 | 65 | 1015.9 |
| 20260503230329 | 64 | 197 | 5.0 | 8.0 | 0.00 | 0.00 | 0.00 | 65 | 1015.8 |
| 20260503225827 | 65 | 206 | 5.0 | 9.0 | 0.00 | 0.00 | 0.00 | 65 | 1016.0 |
| 20260503225322 | 65 | 214 | 2.0 | 9.0 | 0.00 | 0.00 | 0.00 | 65 | 1016.0 |
| 20260503224818 | 65 | 194 | 6.0 | 10.0 | 0.00 | 0.00 | 0.00 | 65 | 1015.9 |
| 20260503224316 | 65 | 186 | 5.0 | 6.0 | 0.00 | 0.00 | 0.00 | 65 | 1015.9 |
| 20260503223814 | 65 | 242 | 2.0 | 5.0 | 0.00 | 0.00 | 0.00 | 65 | 1016.2 |
| 20260503223312 | 65 | 168 | 6.0 | 8.0 | 0.00 | 0.00 | 0.00 | 64 | 1016.0 |
| 20260503222807 | 65 | 220 | 3.0 | 6.0 | 0.00 | 0.00 | 0.00 | 63 | 1016.0 |
| 20260503222305 | 65 | 199 | 7.0 | 9.0 | 0.00 | 0.00 | 0.00 | 63 | 1015.9 |
| 20260503221803 | 65 | 216 | 7.0 | 9.0 | 0.00 | 0.00 | 0.00 | 64 | 1015.8 |
| 20260503221301 | 65 | 221 | 4.0 | 9.0 | 0.00 | 0.00 | 0.00 | 64 | 1015.7 |
| 20260503220757 | 65 | 212 | 3.0 | 9.0 | 0.00 | 0.00 | 0.00 | 63 | 1015.7 |
| 20260503220254 | 65 | 180 | 4.0 | 6.0 | 0.00 | 0.00 | 0.00 | 63 | 1015.7 |
| 20260503215751 | 65 | 203 | 4.0 | 7.0 | 0.00 | 0.00 | 0.00 | 63 | 1015.7 |
| 20260503215248 | 65 | 157 | 6.0 | 8.0 | 0.00 | 0.00 | 0.00 | 63 | 1015.9 |
| 20260503214746 | 65 | 208 | 3.0 | 8.0 | 0.00 | 0.00 | 0.00 | 63 | 1015.7 |
| 20260503214242 | 66 | 226 | 6.0 | 7.0 | 0.00 | 0.00 | 0.00 | 62 | 1015.8 |
| 20260503213741 | 66 | 191 | 5.0 | 7.0 | 0.00 | 0.00 | 0.00 | 63 | 1015.7 |
| 20260503213238 | 66 | 232 | 2.0 | 7.0 | 0.00 | 0.00 | 0.00 | 63 | 1015.8 |
| 20260503212734 | 66 | 243 | 5.0 | 7.0 | 0.00 | 0.00 | 0.00 | 62 | 1015.8 |
| 20260503212232 | 66 | 242 | 6.0 | 10.0 | 0.00 | 0.00 | 0.00 | 61 | 1015.7 |
| 20260503211730 | 66 | 193 | 7.0 | 9.0 | 0.00 | 0.00 | 0.00 | 62 | 1016.1 |
| 20260503211225 | 66 | 175 | 4.0 | 7.0 | 0.00 | 0.00 | 0.00 | 61 | 1015.7 |
| 20260503210721 | 66 | 171 | 10.0 | 11.0 | 0.00 | 0.00 | 0.00 | 61 | 1015.9 |
| 20260503210219 | 66 | 217 | 9.0 | 10.0 | 0.00 | 0.00 | 0.00 | 61 | 1016.2 |
| 20260503205714 | 66 | 200 | 4.0 | 9.0 | 0.00 | 0.00 | 0.00 | 62 | 1016.2 |
| 20260503205210 | 66 | 128 | 6.0 | 13.0 | 0.00 | 0.00 | 0.00 | 62 | 1016.1 |
| 20260503204707 | 66 | 201 | 6.0 | 14.0 | 0.00 | 0.00 | 0.00 | 60 | 1016.2 |
| 20260503204205 | 66 | 160 | 3.0 | 9.0 | 0.00 | 0.00 | 0.00 | 61 | 1016.3 |
| 20260503203701 | 66 | 187 | 5.0 | 7.0 | 0.00 | 0.00 | 0.00 | 61 | 1016.0 |
| 20260503203159 | 66 | 199 | 9.0 | 15.0 | 0.00 | 0.00 | 0.00 | 60 | 1016.0 |
| 20260503202650 | 66 | 199 | 5.0 | 10.0 | 0.00 | 0.00 | 0.00 | 61 | 1016.3 |
| 20260503202148 | 66 | 243 | 2.0 | 6.0 | 0.00 | 0.00 | 0.00 | 61 | 1016.3 |
| 20260503201646 | 66 | 214 | 1.0 | 6.0 | 0.00 | 0.00 | 0.00 | 62 | 1016.1 |
| 20260503201143 | 66 | 288 | 2.0 | 8.0 | 0.00 | 0.00 | 0.00 | 61 | 1016.3 |
| 20260503200639 | 66 | 195 | 9.0 | 15.0 | 0.00 | 0.00 | 0.00 | 61 | 1016.5 |
| 20260503200136 | 66 | 244 | 4.0 | 7.0 | 0.00 | 0.00 | 0.00 | 61 | 1016.5 |
| 20260503195633 | 66 | 223 | 7.0 | 11.0 | 0.00 | 0.00 | 0.00 | 61 | 1016.3 |
| 20260503195130 | 66 | 205 | 2.0 | 10.0 | 0.00 | 0.00 | 0.00 | 61 | 1016.6 |
| 20260503194627 | 67 | 208 | 6.0 | 10.0 | 0.00 | 0.00 | 0.00 | 60 | 1016.6 |
| 20260503194122 | 66 | 222 | 1.0 | 7.0 | 0.00 | 0.00 | 0.00 | 61 | 1016.7 |
| 20260503193620 | 66 | 186 | 6.0 | 9.0 | 0.00 | 0.00 | 0.00 | 61 | 1016.8 |
| 20260503193114 | 66 | 173 | 3.0 | 13.0 | 0.00 | 0.00 | 0.00 | 61 | 1017.0 |
| 20260503192604 | 66 | 219 | 4.0 | 8.0 | 0.00 | 0.00 | 0.00 | 61 | 1016.9 |
| 20260503192100 | 66 | 116 | 7.0 | 11.0 | 0.00 | 0.00 | 0.00 | 60 | 1017.0 |
| 20260503191557 | 66 | 284 | 3.0 | 10.0 | 0.00 | 0.00 | 0.00 | 61 | 1017.0 |
| 20260503191054 | 66 | 148 | 5.0 | 9.0 | 0.00 | 0.00 | 0.00 | 61 | 1017.1 |
| 20260503190551 | 66 | 196 | 2.0 | 7.0 | 0.00 | 0.00 | 0.00 | 62 | 1017.1 |
| 20260503190048 | 66 | 127 | 5.0 | 7.0 | 0.00 | 0.00 | 0.00 | 60 | 1017.3 |
| 20260503185545 | 66 | 83 | 3.0 | 5.0 | 0.00 | 0.00 | 0.00 | 59 | 1017.4 |
| 20260503185044 | 66 | 227 | 0.0 | 3.0 | 0.00 | 0.00 | 0.00 | 58 | 1017.4 |
| 20260503184540 | 66 | 213 | 3.0 | 5.0 | 0.00 | 0.00 | 0.00 | 60 | 1017.4 |
| 20260503184037 | 66 | 180 | 4.0 | 8.0 | 0.00 | 0.00 | 0.00 | 60 | 1017.5 |
| 20260503183534 | 66 | 172 | 3.0 | 9.0 | 0.00 | 0.00 | 0.00 | 60 | 1017.7 |
| 20260503183031 | 67 | 106 | 5.0 | 8.0 | 0.00 | 0.00 | 0.00 | 59 | 1017.6 |
| 20260503182530 | 67 | 112 | 3.0 | 13.0 | 0.00 | 0.00 | 0.00 | 60 | 1017.7 |
| 20260503182027 | 67 | 193 | 9.0 | 10.0 | 0.00 | 0.00 | 0.00 | 60 | 1017.7 |
| 20260503181524 | 67 | 190 | 3.0 | 7.0 | 0.00 | 0.00 | 0.00 | 61 | 1017.7 |
| 20260503181020 | 67 | 171 | 6.0 | 9.0 | 0.00 | 0.00 | 0.00 | 61 | 1017.7 |
| 20260503180518 | 66 | 155 | 5.0 | 7.0 | 0.00 | 0.00 | 0.00 | 61 | 1017.8 |
| 20260503180015 | 66 | 128 | 1.0 | 2.0 | 0.00 | 0.00 | 0.00 | 61 | 1017.5 |
| 20260503175512 | 67 | 120 | 3.0 | 6.0 | 0.00 | 0.00 | 0.00 | 60 | 1017.6 |
| 20260503175009 | 67 | 184 | 7.0 | 8.0 | 0.00 | 0.00 | 0.00 | 60 | 1017.9 |
| 20260503174507 | 67 | 104 | 6.0 | 9.0 | 0.00 | 0.00 | 0.00 | 59 | 1017.7 |
| 20260503174002 | 68 | 151 | 4.0 | 6.0 | 0.00 | 0.00 | 0.00 | 57 | 1017.7 |
| 20260503173457 | 68 | 138 | 1.0 | 2.0 | 0.00 | 0.00 | 0.00 | 58 | 1017.7 |
| 20260503172954 | 68 | 209 | 1.0 | 2.0 | 0.00 | 0.00 | 0.00 | 58 | 1018.0 |
| 20260503172452 | 68 | 74 | 2.0 | 3.0 | 0.00 | 0.00 | 0.00 | 56 | 1017.9 |
| 20260503171948 | 68 | 207 | 1.0 | 3.0 | 0.00 | 0.00 | 0.00 | 54 | 1017.7 |
| 20260503171445 | 68 | 118 | 2.0 | 3.0 | 0.00 | 0.00 | 0.00 | 55 | 1017.9 |
| 20260503170943 | 68 | 287 | 1.0 | 3.0 | 0.00 | 0.00 | 0.00 | 53 | 1018.1 |
| 20260503170438 | 68 | 231 | 2.0 | 5.0 | 0.00 | 0.00 | 0.00 | 54 | 1018.1 |
| 20260503150831 | 66 | 170 | 0.0 | 2.0 | 0.00 | 0.00 | 0.00 | 58 | 1018.6 |
| 20260503150327 | 65 | 119 | 0.0 | 5.0 | 0.00 | 0.00 | 0.00 | 63 | 1018.6 |
| 20260503140251 | 63 | 138 | 1.0 | 5.0 | 0.00 | 0.00 | 0.00 | 75 | 1018.3 |
| 20260503131221 | 58 | 83 | 1.0 | 3.0 | 0.00 | 0.00 | 0.00 | 99 | 1018.2 |
| 20260503130719 | 58 | 109 | 1.0 | 3.0 | 0.00 | 0.00 | 0.00 | 99 | 1018.1 |
| 20260503130216 | 57 | 106 | 1.0 | 3.0 | 0.00 | 0.00 | 0.00 | 99 | 1018.2 |
| 20260503120141 | 50 | 118 | 0.0 | 0.0 | 0.00 | 0.00 | 0.00 | 99 | 1017.5 |
| 20260503110609 | 48 | 220 | 0.0 | 0.0 | 0.00 | 0.00 | 0.00 | 99 | 1016.9 |
| 20260503110106 | 48 | 226 | 0.0 | 0.0 | 0.00 | 0.00 | 0.00 | 99 | 1016.9 |
| 20260503090456 | 49 | 248 | 0.0 | 0.0 | 0.00 | 0.00 | 0.00 | 99 | 1015.4 |
| 20260503081422 | 50 | 245 | 0.0 | 0.0 | 0.00 | 0.00 | 0.00 | 99 | 1015.1 |
| 20260503080919 | 50 | 247 | 0.0 | 1.0 | 0.00 | 0.00 | 0.00 | 99 | 1015.1 |
| 20260503080416 | 50 | 241 | 0.0 | 0.0 | 0.00 | 0.00 | 0.00 | 99 | 1015.4 |
| 20260503072852 | 50 | 203 | 0.0 | 1.0 | 0.00 | 0.00 | 0.00 | 99 | 1014.9 |
| 20260503072349 | 51 | 201 | 0.0 | 1.0 | 0.00 | 0.00 | 0.00 | 99 | 1014.7 |
| 20260503071846 | 51 | 203 | 0.0 | 0.0 | 0.00 | 0.00 | 0.00 | 99 | 1014.7 |
| 20260503071343 | 51 | 230 | 0.0 | 0.0 | 0.00 | 0.00 | 0.00 | 99 | 1014.7 |
| 20260503070839 | 51 | 242 | 0.0 | 0.0 | 0.00 | 0.00 | 0.00 | 99 | 1014.8 |
| 20260503070337 | 51 | 222 | 0.0 | 0.0 | 0.00 | 0.00 | 0.00 | 99 | 1014.5 |
| 20260503060308 | 52 | 254 | 0.0 | 1.0 | 0.00 | 0.00 | 0.00 | 99 | 1014.3 |
| 20260503054755 | 52 | 12 | 0.0 | 1.0 | 0.00 | 0.00 | 0.00 | 99 | 1014.3 |
| 20260503054252 | 52 | 13 | 0.0 | 0.0 | 0.00 | 0.00 | 0.00 | 99 | 1014.2 |
| 20260503053750 | 52 | 13 | 0.0 | 0.0 | 0.00 | 0.00 | 0.00 | 99 | 1014.4 |
| 20260503053248 | 52 | 14 | 0.0 | 1.0 | 0.00 | 0.00 | 0.00 | 99 | 1014.5 |
| 20260503052744 | 52 | 17 | 0.0 | 0.0 | 0.00 | 0.00 | 0.00 | 99 | 1014.3 |
| 20260503052241 | 52 | 22 | 0.0 | 1.0 | 0.00 | 0.00 | 0.00 | 99 | 1014.2 |
| 20260503051736 | 52 | 29 | 0.0 | 1.0 | 0.00 | 0.00 | 0.00 | 99 | 1014.4 |
| 20260503051234 | 53 | 30 | 0.0 | 1.0 | 0.00 | 0.00 | 0.00 | 99 | 1014.2 |
| 20260503050730 | 53 | 33 | 0.0 | 2.0 | 0.00 | 0.00 | 0.00 | 99 | 1014.2 |
| 20260503050227 | 53 | 254 | 0.0 | 0.0 | 0.00 | 0.00 | 0.00 | 99 | 1014.3 |
| 20260503045724 | 53 | 281 | 0.0 | 1.0 | 0.00 | 0.00 | 0.00 | 99 | 1014.2 |
| 20260503045222 | 53 | 266 | 1.0 | 2.0 | 0.00 | 0.00 | 0.00 | 99 | 1014.2 |
| 20260503044718 | 53 | 295 | 1.0 | 2.0 | 0.00 | 0.00 | 0.00 | 99 | 1014.0 |
| 20260503044215 | 53 | 342 | 1.0 | 2.0 | 0.00 | 0.00 | 0.00 | 99 | 1013.8 |
| 20260503043712 | 53 | 196 | 0.0 | 1.0 | 0.00 | 0.00 | 0.00 | 99 | 1013.7 |
| 20260503043210 | 53 | 73 | 0.0 | 1.0 | 0.00 | 0.00 | 0.00 | 99 | 1013.9 |
| 20260503042706 | 54 | 341 | 0.0 | 2.0 | 0.00 | 0.00 | 0.00 | 99 | 1013.8 |
| 20260503042203 | 54 | 285 | 1.0 | 3.0 | 0.00 | 0.00 | 0.00 | 99 | 1013.8 |
| 20260503041658 | 54 | 294 | 1.0 | 1.0 | 0.00 | 0.00 | 0.00 | 99 | 1013.8 |
| 20260503041156 | 54 | 235 | 0.0 | 1.0 | 0.00 | 0.00 | 0.00 | 99 | 1013.7 |
| 20260503040654 | 54 | 312 | 0.0 | 2.0 | 0.00 | 0.00 | 0.00 | 99 | 1013.7 |
| 20260503040151 | 54 | 290 | 1.0 | 1.0 | 0.00 | 0.00 | 0.00 | 99 | 1013.6 |
| 20260503035647 | 54 | 280 | 1.0 | 1.0 | 0.00 | 1.02 | 1.02 | 99 | 1013.7 |
| 20260503035145 | 54 | 272 | 0.0 | 2.0 | 0.00 | 1.02 | 1.02 | 99 | 1013.4 |
| 20260503034643 | 54 | 271 | 0.0 | 2.0 | 0.00 | 1.02 | 1.02 | 99 | 1013.4 |
| 20260503034139 | 55 | 287 | 0.0 | 1.0 | 0.00 | 1.02 | 1.02 | 99 | 1013.4 |
| 20260503033636 | 55 | 268 | 1.0 | 2.0 | 0.00 | 1.02 | 1.02 | 99 | 1013.2 |
| 20260503033134 | 55 | 244 | 0.0 | 1.0 | 0.00 | 1.02 | 1.02 | 99 | 1013.2 |
| 20260503032632 | 55 | 250 | 0.0 | 1.0 | 0.00 | 1.02 | 1.02 | 99 | 1013.0 |
| 20260503032131 | 55 | 230 | 0.0 | 0.0 | 0.00 | 1.02 | 1.02 | 99 | 1013.1 |
| 20260503031628 | 55 | 220 | 0.0 | 1.0 | 0.00 | 1.02 | 1.02 | 99 | 1012.9 |
| 20260503031126 | 55 | 258 | 1.0 | 3.0 | 0.00 | 1.02 | 1.02 | 99 | 1012.9 |
| 20260503030621 | 55 | 221 | 0.0 | 1.0 | 0.00 | 1.02 | 1.02 | 99 | 1012.8 |
| 20260503030118 | 55 | 224 | 0.0 | 0.0 | 0.00 | 1.02 | 1.02 | 99 | 1012.6 |
| 20260503025615 | 55 | 269 | 0.0 | 2.0 | 0.00 | 1.02 | 1.02 | 99 | 1012.8 |
| 20260503025113 | 55 | 229 | 0.0 | 2.0 | 0.00 | 1.02 | 1.02 | 99 | 1012.5 |
| 20260503024609 | 55 | 226 | 0.0 | 1.0 | 0.00 | 1.02 | 1.02 | 99 | 1012.7 |
| 20260503024106 | 55 | 257 | 0.0 | 2.0 | 0.00 | 1.02 | 1.02 | 99 | 1012.5 |
| 20260503023603 | 55 | 240 | 0.0 | 0.0 | 0.00 | 1.02 | 1.02 | 99 | 1012.4 |
| 20260503023100 | 55 | 250 | 0.0 | 1.0 | 0.00 | 1.02 | 1.02 | 99 | 1012.4 |
| 20260503022556 | 55 | 119 | 0.0 | 1.0 | 0.00 | 1.02 | 1.02 | 99 | 1012.4 |
| 20260503022051 | 55 | 40 | 1.0 | 1.0 | 0.00 | 1.02 | 1.02 | 99 | 1012.2 |
| 20260503021548 | 55 | 41 | 0.0 | 0.0 | 0.00 | 1.02 | 1.02 | 99 | 1012.1 |
| 20260503021044 | 55 | 41 | 0.0 | 0.0 | 0.00 | 1.02 | 1.02 | 99 | 1012.0 |
| 20260503020542 | 55 | 41 | 0.0 | 0.0 | 0.00 | 1.02 | 1.02 | 99 | 1011.8 |
| 20260503020039 | 55 | 41 | 0.0 | 1.0 | 0.00 | 1.02 | 1.02 | 99 | 1011.8 |
| 20260503015535 | 55 | 41 | 0.0 | 1.0 | 0.00 | 1.02 | 1.02 | 99 | 1011.8 |
| 20260503015033 | 55 | 108 | 0.0 | 1.0 | 0.00 | 1.02 | 1.02 | 99 | 1011.5 |
| 20260503014528 | 55 | 95 | 1.0 | 2.0 | 0.00 | 1.02 | 1.02 | 99 | 1011.6 |
| 20260503014027 | 55 | 262 | 0.0 | 1.0 | 0.00 | 1.02 | 1.02 | 99 | 1011.4 |
| 20260503013523 | 55 | 297 | 0.0 | 1.0 | 0.00 | 1.02 | 1.02 | 99 | 1011.5 |
| 20260503013021 | 55 | 230 | 0.0 | 0.0 | 0.00 | 1.02 | 1.02 | 99 | 1011.5 |
| 20260503012519 | 55 | 71 | 1.0 | 2.0 | 0.00 | 1.02 | 1.02 | 99 | 1011.7 |
| 20260503012015 | 55 | 240 | 0.0 | 1.0 | 0.00 | 1.02 | 1.02 | 99 | 1011.6 |
| 20260503011511 | 55 | 351 | 2.0 | 5.0 | 0.00 | 1.02 | 1.02 | 99 | 1011.3 |
| 20260503011009 | 55 | 304 | 0.0 | 1.0 | 0.00 | 1.02 | 1.02 | 99 | 1011.6 |
| 20260503010505 | 55 | 271 | 0.0 | 2.0 | 0.00 | 1.02 | 1.02 | 99 | 1011.6 |
| 20260503010003 | 55 | 209 | 0.0 | 1.0 | 0.00 | 1.02 | 1.02 | 99 | 1011.4 |
| 20260503005500 | 55 | 322 | 1.0 | 3.0 | 0.00 | 1.02 | 1.02 | 99 | 1011.4 |
| 20260503004957 | 55 | 242 | 1.0 | 1.0 | 0.00 | 1.02 | 1.02 | 99 | 1011.4 |
| 20260503004453 | 55 | 256 | 0.0 | 2.0 | 0.00 | 1.02 | 1.02 | 99 | 1011.2 |
| 20260503003951 | 55 | 304 | 1.0 | 2.0 | 0.00 | 1.02 | 1.02 | 99 | 1011.2 |
| 20260503003447 | 55 | 284 | 2.0 | 2.0 | 0.00 | 1.02 | 1.02 | 99 | 1010.9 |
| 20260503002944 | 55 | 21 | 2.0 | 5.0 | 0.00 | 1.02 | 1.02 | 99 | 1010.8 |
| 20260503002442 | 56 | 315 | 1.0 | 3.0 | 0.00 | 1.02 | 1.02 | 99 | 1010.8 |
| 20260503001937 | 56 | 41 | 1.0 | 3.0 | 0.00 | 1.02 | 1.02 | 99 | 1010.5 |
| 20260503001434 | 56 | 25 | 0.0 | 2.0 | 0.00 | 1.02 | 1.02 | 99 | 1010.7 |
| 20260503000932 | 56 | 45 | 1.0 | 1.0 | 0.00 | 1.02 | 1.02 | 99 | 1010.9 |
| 20260503000430 | 56 | 21 | 1.0 | 3.0 | 0.00 | 1.02 | 1.02 | 99 | 1010.9 |
| 20260502235926 | 56 | 247 | 0.0 | 1.0 | 0.00 | 1.02 | 1.02 | 99 | 1010.7 |
| 20260502235423 | 56 | 238 | 0.0 | 3.0 | 0.00 | 1.02 | 1.02 | 99 | 1010.5 |
| 20260502234920 | 56 | 323 | 1.0 | 2.0 | 0.00 | 1.02 | 1.02 | 99 | 1010.3 |
| 20260502234417 | 56 | 15 | 0.0 | 2.0 | 0.00 | 1.02 | 1.02 | 99 | 1010.3 |
| 20260502233914 | 56 | 42 | 3.0 | 3.0 | 0.00 | 1.02 | 1.02 | 99 | 1010.4 |
| 20260502233409 | 56 | 286 | 1.0 | 1.0 | 0.00 | 1.02 | 1.02 | 99 | 1010.5 |
| 20260502232907 | 56 | 259 | 1.0 | 2.0 | 0.00 | 1.02 | 1.02 | 99 | 1010.3 |
| 20260502232403 | 57 | 42 | 2.0 | 3.0 | 0.00 | 1.02 | 1.02 | 99 | 1010.0 |